Weather History for KHFJ - May, 2014

Change the Weather History Date:

Friday, May 2, 2014

  Actual Average (KJLN) Record (KJLN)
Temperature  
Mean Temperature 50 °F 63 °F  
Max Temperature 64 °F 75 °F 89 °F (1968)
Min Temperature 35 °F 52 °F 31 °F (1961)
Degree Days  
Heating Degree Days 16 4  
Month to date heating degree days 8  
Since 1 July heating degree days 4011  
Cooling Degree Days 0 2  
Month to date cooling degree days 4  
Year to date cooling degree days 58  
Moisture  
Dew Point 35 °F    
Average Humidity 57    
Maximum Humidity 93    
Minimum Humidity 32    
Precipitation  
Precipitation 0.00 in 0.19 in 1.23 in (2007)
Month to date precipitation 0.38  
Year to date precipitation 12.62  
Sea Level Pressure  
Sea Level Pressure 29.97 in    
Wind  
Wind Speed 3 mph (WSW)    
Max Wind Speed 14 mph    
Max Gust Speed 20 mph    
Visibility 10 miles    
Events      
T = Trace of Precipitation, MM = Missing Value Source: NWS Daily Summary

Daily Weather History Graph

Daily Weather History Graph

Search for Another Location

Airport or City:

Trip Planner

Search our weather history database for the weather conditions in past years. The results will help you decide how hot, cold, wet, or windy it might be!

Date:

Astronomy

May. 02, 2014 Rise Set
Actual Time 6:20 AM CDT 8:05 PM CDT
Civil Twilight 5:52 AM CDT 8:33 PM CDT
Nautical Twilight 5:19 AM CDT 9:07 PM CDT
Astronomical Twilight 4:43 AM CDT 9:43 PM CDT
Moon 9:00 AM CDT (5/2) 11:27 PM CDT (5/2)
Length of Visible Light 14h 40m
Length of Day
13h 45m
Waxing Crescent, 12% of the Moon is Illuminated
May 2
Waxing Crescent
May 6
First Quarter
May 14
Full
May 21
Last Quarter
May 28
New

Hourly Weather History & Observations

Time (CDT) Temp. Windchill Dew Point Humidity Pressure Visibility Wind Dir Wind Speed Gust Speed Precip Events Conditions
12:15 AM 44.6 °F - 35.6 °F 71% 30.03 in 10.0 mi Calm Calm - N/A   Scattered Clouds
12:55 AM 41.0 °F 39.0 °F 35.6 °F 81% 30.02 in 10.0 mi SSE 3.5 mph - N/A   Clear
1:15 AM 39.2 °F 37.0 °F 35.6 °F 87% 30.02 in 10.0 mi South 3.5 mph - N/A   Clear
1:35 AM 39.2 °F 35.9 °F 35.6 °F 87% 30.01 in 10.0 mi SSE 4.6 mph - N/A   Clear
1:55 AM 39.2 °F 37.0 °F 35.6 °F 87% 30.00 in 10.0 mi South 3.5 mph - N/A   Clear
2:15 AM 39.2 °F 37.0 °F 35.6 °F 87% 30.00 in 10.0 mi South 3.5 mph - N/A   Clear
2:35 AM 41.0 °F 39.0 °F 35.6 °F 81% 30.00 in 10.0 mi South 3.5 mph - N/A   Clear
2:55 AM 41.0 °F - 35.6 °F 81% 29.99 in 10.0 mi Calm Calm - N/A   Clear
3:15 AM 39.2 °F - 33.8 °F 81% 29.99 in 10.0 mi Calm Calm - N/A   Clear
3:35 AM 37.4 °F - 33.8 °F 87% 29.99 in 10.0 mi Calm Calm - N/A   Clear
3:55 AM 37.4 °F - 35.6 °F 93% 29.99 in 10.0 mi Calm Calm - N/A   Clear
4:15 AM 39.2 °F - 33.8 °F 81% 29.99 in 10.0 mi Calm Calm - N/A   Clear
4:35 AM 35.6 °F - 33.8 °F 93% 29.98 in 10.0 mi Calm Calm - N/A   Clear
4:55 AM 37.4 °F - 33.8 °F 87% 29.98 in 10.0 mi Calm Calm - N/A   Clear
5:15 AM 37.4 °F - 33.8 °F 87% 29.98 in 10.0 mi Calm Calm - N/A   Clear
5:35 AM 41.0 °F - 33.8 °F 76% 29.97 in 10.0 mi Calm Calm - N/A   Clear
5:55 AM 37.4 °F - 33.8 °F 87% 29.98 in 10.0 mi Calm Calm - N/A   Clear
6:15 AM 35.6 °F 32.8 °F 33.8 °F 93% 29.98 in 10.0 mi South 3.5 mph - N/A   Clear
6:35 AM 37.4 °F 34.9 °F 33.8 °F 87% 29.99 in 10.0 mi South 3.5 mph - N/A   Clear
6:55 AM 37.4 °F 34.9 °F 33.8 °F 87% 29.99 in 10.0 mi South 3.5 mph - N/A   Clear
7:15 AM 39.2 °F - 33.8 °F 81% 30.00 in 10.0 mi Calm Calm - N/A   Clear
7:35 AM 42.8 °F - 35.6 °F 76% 30.00 in 10.0 mi Calm Calm - N/A   Clear
7:55 AM 42.8 °F - 37.4 °F 81% 30.01 in 10.0 mi Calm Calm - N/A   Clear
8:15 AM 44.6 °F - 37.4 °F 76% 30.01 in 10.0 mi Calm Calm - N/A   Clear
8:35 AM 46.4 °F - 37.4 °F 71% 30.01 in 10.0 mi Calm Calm - N/A   Clear
8:55 AM 50.0 °F - 37.4 °F 62% 30.01 in 10.0 mi Calm Calm - N/A   Clear
9:15 AM 51.8 °F - 37.4 °F 58% 30.01 in 10.0 mi Calm Calm - N/A   Clear
9:35 AM 53.6 °F - 37.4 °F 54% 30.01 in 10.0 mi Calm Calm - N/A   Clear
9:55 AM 53.6 °F - 37.4 °F 54% 30.01 in 10.0 mi Calm Calm - N/A   Clear
10:15 AM 55.4 °F - 37.4 °F 51% 30.01 in 10.0 mi West 6.9 mph - N/A   Clear
10:35 AM 55.4 °F - 37.4 °F 51% 30.01 in 10.0 mi SW 3.5 mph - N/A   Clear
10:55 AM 57.2 °F - 35.6 °F 44% 30.01 in 10.0 mi West 9.2 mph - N/A   Clear
11:15 AM 59.0 °F - 35.6 °F 42% 30.01 in 10.0 mi SSW 3.5 mph - N/A   Scattered Clouds
11:35 AM 59.0 °F - 37.4 °F 45% 30.00 in 10.0 mi WNW 10.4 mph - N/A   Mostly Cloudy
11:55 AM 59.0 °F - 35.6 °F 42% 30.00 in 10.0 mi WNW 6.9 mph - N/A   Scattered Clouds
12:15 PM 60.8 °F - 35.6 °F 39% 29.99 in 10.0 mi West 9.2 mph - N/A   Mostly Cloudy
12:35 PM 59.0 °F - 33.8 °F 39% 29.98 in 10.0 mi West 10.4 mph 17.3 mph N/A   Mostly Cloudy
12:55 PM 60.8 °F - 33.8 °F 36% 29.97 in 10.0 mi West 9.2 mph - N/A   Mostly Cloudy
1:15 PM 62.6 °F - 35.6 °F 37% 29.97 in 10.0 mi WNW 8.1 mph 17.3 mph N/A   Mostly Cloudy
1:35 PM 60.8 °F - 33.8 °F 36% 29.96 in 10.0 mi West 3.5 mph - N/A   Mostly Cloudy
1:55 PM 62.6 °F - 33.8 °F 34% 29.96 in 10.0 mi WNW 5.8 mph 17.3 mph N/A   Mostly Cloudy
2:15 PM 62.6 °F - 33.8 °F 34% 29.95 in 10.0 mi West 13.8 mph - N/A   Mostly Cloudy
2:35 PM 62.6 °F - 33.8 °F 34% 29.94 in 10.0 mi WNW 11.5 mph 16.1 mph N/A   Scattered Clouds
2:55 PM 62.6 °F - 35.6 °F 37% 29.94 in 10.0 mi West 9.2 mph - N/A   Mostly Cloudy
3:15 PM 62.6 °F - 35.6 °F 37% 29.94 in 10.0 mi West 6.9 mph - N/A   Mostly Cloudy
3:35 PM 64.4 °F - 35.6 °F 34% 29.94 in 10.0 mi West 9.2 mph 16.1 mph N/A   Mostly Cloudy
3:55 PM 62.6 °F - 35.6 °F 37% 29.93 in 10.0 mi NW 6.9 mph - N/A   Mostly Cloudy
4:15 PM 62.6 °F - 35.6 °F 37% 29.93 in 10.0 mi West 5.8 mph 19.6 mph N/A   Mostly Cloudy
4:35 PM 62.6 °F - 33.8 °F 34% 29.93 in 10.0 mi West 5.8 mph - N/A   Scattered Clouds
4:55 PM 64.4 °F - 35.6 °F 34% 29.93 in 10.0 mi WNW 11.5 mph 17.3 mph N/A   Mostly Cloudy
5:15 PM 64.4 °F - 35.6 °F 34% 29.93 in 10.0 mi West 9.2 mph - N/A   Scattered Clouds
5:35 PM 64.4 °F - 33.8 °F 32% 29.93 in 10.0 mi WNW 10.4 mph - N/A   Scattered Clouds
5:55 PM 64.4 °F - 33.8 °F 32% 29.92 in 10.0 mi West 10.4 mph - N/A   Clear
6:15 PM 64.4 °F - 33.8 °F 32% 29.92 in 10.0 mi WNW 9.2 mph 16.1 mph N/A   Clear
6:35 PM 64.4 °F - 33.8 °F 32% 29.91 in 10.0 mi West 8.1 mph - N/A   Clear
6:55 PM 62.6 °F - 33.8 °F 34% 29.91 in 10.0 mi West 6.9 mph - N/A   Clear
7:15 PM 62.6 °F - 33.8 °F 34% 29.91 in 10.0 mi West 6.9 mph - N/A   Clear
7:35 PM 60.8 °F - 35.6 °F 39% 29.91 in 10.0 mi WSW 4.6 mph - N/A   Clear
7:55 PM 59.0 °F - 35.6 °F 42% 29.91 in 10.0 mi WSW 4.6 mph - N/A   Clear
8:15 PM 59.0 °F - 35.6 °F 42% 29.91 in 10.0 mi SW 3.5 mph - N/A   Clear
8:35 PM 55.4 °F - 35.6 °F 47% 29.91 in 10.0 mi SSW 4.6 mph - N/A   Clear
8:55 PM 57.2 °F - 35.6 °F 44% 29.92 in 10.0 mi Calm Calm - N/A   Clear
9:15 PM 55.4 °F - 35.6 °F 47% 29.92 in 10.0 mi South 3.5 mph - N/A   Clear
9:35 PM 53.6 °F - 35.6 °F 51% 29.92 in 10.0 mi South 4.6 mph - N/A   Clear
9:55 PM 51.8 °F - 35.6 °F 54% 29.93 in 10.0 mi South 4.6 mph - N/A   Clear
10:15 PM 51.8 °F - 35.6 °F 54% 29.93 in 10.0 mi South 4.6 mph - N/A   Clear
10:35 PM 51.8 °F - 35.6 °F 54% 29.93 in 10.0 mi South 3.5 mph - N/A   Clear
10:55 PM 51.8 °F - 35.6 °F 54% 29.93 in 10.0 mi South 4.6 mph - N/A   Clear
11:15 PM 50.0 °F - 35.6 °F 58% 29.93 in 10.0 mi South 3.5 mph - N/A   Clear
11:35 PM 50.0 °F - 35.6 °F 58% 29.93 in 10.0 mi South 4.6 mph - N/A   Clear
11:55 PM 50.0 °F - 35.6 °F 58% 29.93 in 10.0 mi South 4.6 mph - N/A   Clear